This is the latest recevied weather packets stored in our database for station/object Kisslegg. If no packets are shown the sender has not sent any weather packets the latest 10 day(s).
| Time | Temp. | Humidity | Pressure | Rain* | Wind** | Luminosity | Snow |
|---|---|---|---|---|---|---|---|
| 1787799730 | 17.78° C | 89% | 1011.9 hPa | 0.25 mm | - | - | - |
| 1787797929 | 18.33° C | 88% | 1012 hPa | 0.25 mm | - | - | - |
| 1787796130 | 18.33° C | 88% | 1012.2 hPa | 0.25 mm | - | - | - |
| 1787794330 | 18.33° C | 88% | 1012.2 hPa | 0.25 mm | - | - | - |
| 1787792529 | 18.33° C | 87% | 1012.3 hPa | 0.25 mm | - | - | - |
| 1787790731 | 18.89° C | 86% | 1012.4 hPa | 0.25 mm | - | - | - |
| 1787788931 | 18.89° C | 85% | 1012.7 hPa | 0.25 mm | - | - | - |
| 1787787131 | 19.44° C | 84% | 1012.6 hPa | 0 mm | - | - | - |
| 1787785331 | 19.44° C | 83% | 1012.7 hPa | 0 mm | - | - | - |
| 1787783531 | 20° C | 82% | 1012.8 hPa | 0 mm | - | - | - |
| 1787781731 | 20.56° C | 81% | 1012.9 hPa | 0 mm | - | - | - |
| 1787779931 | 20.56° C | 80% | 1013 hPa | 0.51 mm | - | - | - |
| 1787778131 | 20.56° C | 79% | 1013.2 hPa | 0.51 mm | - | - | - |
| 1787776332 | 21.11° C | 78% | 1013.2 hPa | 0.51 mm | - | - | - |
| 1787774532 | 22.22° C | 75% | 1013.4 hPa | 0.51 mm | - | - | - |
| 1787772731 | 22.78° C | 72% | 1013.5 hPa | 0.51 mm | - | - | - |
| 1787770931 | 22.78° C | 71% | 1013.4 hPa | 0.51 mm | - | - | - |
| 1787769131 | 23.33° C | 69% | 1013.2 hPa | 0.51 mm | - | - | - |
| 1787767330 | 23.89° C | 68% | 1013.2 hPa | 0.51 mm | - | - | - |
| 1787765530 | 25° C | 66% | 1013.1 hPa | 0.51 mm | - | - | - |
| 1787763730 | 26.11° C | 59% | 1013.4 hPa | 0.51 mm | - | - | - |
| 1787761931 | 26.67° C | 56% | 1013.5 hPa | 0.51 mm | - | - | - |
| 1787760131 | 27.22° C | 57% | 1013.5 hPa | 0.51 mm | - | - | - |
| 1787758331 | 27.22° C | 55% | 1013.5 hPa | 0.51 mm | - | - | - |
| 1787756530 | 27.78° C | 57% | 1013.7 hPa | 0.51 mm | - | - | - |
* Rain since midnight (hover to see other rain measurements)
** Current wind speed in m/s (hover to see current wind gust speed)